User: anonymous   Login
Location: Vigo di Fassa
(46.4167°N, 11.6667°E)
Time: 20:45:19
(UTC+00:00)
Language:

Meteor 1-11 Rocket - Orbit

View from above orbital plane
View from above orbital plane
View from above satellite
View from above satellite

Ground track
Ground track

The orbit data is extracted from the following two-line orbital elements,

1 05918U 72022B   21136.82010645 -.00000056  00000-0 -40766-4 0  9995
2 05918  81.2403  22.8680 0056969 269.9272  89.5368 14.05884872518607
Epoch (UTC): 16 May 2021 19:40:57
Eccentricity: 0.0056969
inclination: 81.2403°
perigee height: 832 km
apogee height: 915 km
right ascension of ascending node: 22.8680°
argument of perigee: 269.9272°
revolutions per day: 14.05884872
mean anomaly at epoch: 89.5368°
orbit number at epoch: 51860

The dashed part of the orbit path shows where the satellite is in the earth's shadow,  

DLR